Simultaneous Nadir Overpasses (SNOs) Predictions

Prediction of SNOs between GOES-15 and LANDSAT-8 Satellite Orbit:

Table of predicted SNOs for the next 14.0 days since TLE Epoch: 10/15/2022
Index Date Time (GOES-15) GOES-15 Lat,Lon LANDSAT-8 Lat,Lon Distance(km) Time Diff (sec)
1 10/16/2022 06:49:09 0.29,-128.37 0.23,-128.76 44.50 80
2 10/18/2022 06:34:19 0.28,-128.38 0.84,-125.81 292.49 80
3 10/18/2022 18:55:35 -0.29,-128.38 0.25,-130.97 293.70 80
4 10/20/2022 18:46:05 -0.28,-128.40 -0.38,-128.02 43.20 80
5 10/22/2022 18:33:54 -0.28,-128.40 -0.96,-125.06 379.85 80
6 10/23/2022 06:55:19 0.28,-128.41 -0.10,-130.26 209.71 80
7 10/25/2022 06:40:28 0.28,-128.41 0.50,-127.30 126.22 80
8 10/25/2022 19:01:43 -0.28,-128.40 0.59,-132.46 461.70 80
9 10/27/2022 06:28:17 0.28,-128.40 1.11,-124.34 461.44 80
10 10/27/2022 18:49:32 -0.27,-128.39 -0.03,-129.50 126.49 80
